Jackpot

Texas Poker Multi Jackpot System

Kini Telah hadir Jackpot SUPER ROYAL FLUSH

Kini Telah hadir Jackpot 2000 (khusus table VIP keatas).

Ikutilah global jackpot yang tersedia di system kami, dengan system jackpot terbaru dan pertama di indonesia, anda dapat membeli jackpot dengan harga 100 rupiah saja dan menangkan hadiahnya hingga puluhan juta rupiah.

Jackpot bukanlah suatu keharusan untuk dibeli, namun kami memberikan suatu fitur tambahan untuk member tercinta dari www.pokerf4ce.com.

Terdapat tiga pilihan harga jackpot yang bisa anda beli yaitu :100,500,1000 dan 2000(khusus table VIP Keatas) rupiah.

Hadiah dari Multi jackpot system www.pokerf4ce.com

  1. full house x 10 harga jackpot yang anda beli.
      (contoh:anda membeli 1000 maka:1000 X10 = 10.000)
  2. four of kind x 250 harga jackpot yang anda beli
      (contoh:anda membeli 1000 maka:1000 X250 = 250.000)
  3. Straight flush x 1200
      (contoh:anda membeli 1000 maka:1000 X1200 = 1.200.000)
  4. Royal flush x 10000 harga jackpot yang anda beli
      (contoh:anda membeli 1000 maka:1000 X10000 = 10.000.000)
  5. SUPER ROYAL FLUSH x 30000 harga jackpot yang anda beli
      (contoh:anda membeli 1000 maka:1000 X30000 = 30.000.000)

Kondisi kartu

  1. full house adalah kondisi kartu dimana kartu anda dan kartu tengah dengan total 7 kartu bisa mendapatkan nilai 5 kartu dengan kombinasi 1 tris(three of kind) dan 1 pair, contoh 3 kartu 10 dan 2 kartu 5
  2. Four of kind adalah kondisi kartu dimana kartu anda dan kartu tengah dengan total 7 kartu bisa mendapatkan nilai 5 kartu dengan kombinasi 4 kartu yang sama jumlah dan 1 kartu apapun juga contoh anda mendapatkan 4 buah kartu angka 3 dan 1 kartu apapun.
  3. Staright flush adalah kondisi kartu dimana kartu anda dan kartu tengah dengan total 7 kartu bisa mendapatkan nilai 5 kartu dengan kombinasi seri / staright dengan kembang yang sama contoh : urutan kartu dari angka 5, 6, 7, 8 , 9 10 dengan kembang yg sama misalnya as hati
  4. Royal flush adalah kondisi kartu dimana kartu anda dan kartu tengah dengan total 7 kartu bisa mendapatkan nilai 5 kartu dengan kombinasi seri / staright dengan kembang yang sama tetapi kartu tersebut haruslah dimulai dari 10. contoh 10, Queen, Jack, King dan aces dengan kembang yang sama
  5. Super Royal flush adalah kondisi kartu dimana Kedua kartu anda digabung dengan 3 kartu pertama meja haruslah royal flush. contoh kartu anda 10,Queen kembang sama dan 3 kartu pertama meja adalah Jack, King dan aces dengan kembang yang sama

Demikian adalah penjelasan dari Multi Jackpot www.pokerf4ce.com terima kasih dan selamat bermain salam hoki dari kami

Texas Poker Jackpot Winner

TOP SUPER ROYAL FLUSH
No.TanggalNamaPriceWin
118/12 16:32REWA_99Super Royal flush15,000,000
218/12 11:40NRULES2502Super Royal flush15,000,000
318/12 10:24MANIK44Super Royal flush15,000,000
418/12 03:22YANSPEACESuper Royal flush30,000,000
517/12 21:42ZANDYMANSuper Royal flush6,000,000
TOP ROYAL FLUSH
No.TanggalNamaPriceWin
118/12 21:17DWTPANCALI123Royal flush5,000,000
218/12 20:58IBU28Royal flush20,000,000
318/12 20:52RAJAPO77Royal flush20,000,000
418/12 20:46MANDALA273Royal flush2,000,000
518/12 20:46WAKWAUU001Royal flush2,000,000
TOP STRAIGHT FLUSH
No.TanggalNamaPriceWin
118/12 21:200W3N53XStraight Flush120,000
218/12 21:20XIAONIStraight Flush600,000
318/12 21:19FEBBY1993Straight Flush600,000
418/12 21:19BIMAGILOXStraight Flush600,000
518/12 21:17ONSESSStraight Flush600,000
LATEST JACKPOT
No.TanggalNamaPriceWin
118/12 21:21JPHOKI889Full House2,000
218/12 21:21AMANGDEJAFull House5,000
318/12 21:21REJEKY100Full House1,000
418/12 21:21IETVU0SJXQFull House1,000
518/12 21:21TH5TMZV8KUFull House2,000
618/12 21:21PIYO65Full House1,000
718/12 21:21X910XZ42NLFull House20,000
818/12 21:21TATATU86Full House5,000
918/12 21:21L0H0T66Full House10,000
1018/12 21:21DWBTMALI30Full House5,000
1118/12 21:21KOB0I123Full House20,000
1218/12 21:21ASMHY12345Full House1,000
1318/12 21:21POTLOT55Full House5,000
1418/12 21:21CREWZERO18Full House500
1518/12 21:21RINTO1226Full House1,000
1618/12 21:21NATUGNARUFull House2,000
1718/12 21:20TOLOK002Full House5,000
1818/12 21:20HUM4IR4H5Full House10,000
1918/12 21:20NHJGTB67DWFour Of A Kind125,000
2018/12 21:20ALZHOELFull House5,000
2118/12 21:20BANGRUDFull House1,000
2218/12 21:20LEONA79Full House10,000
2318/12 21:20TEMPOYAX69Full House5,000
2418/12 21:20SRAJAK01Four Of A Kind250,000
2518/12 21:20WARDANYFull House10,000
2618/12 21:20C29F91E4Full House2,000
2718/12 21:20RYLPKRFull House10,000
2818/12 21:20EAC82748Full House1,000
2918/12 21:20PT4DMANDO88Full House2,000
3018/12 21:20QT0ALITO42Four Of A Kind125,000
3118/12 21:20ADOS9SFull House2,000
3218/12 21:20ACEF718Four Of A Kind250,000
3318/12 21:20BRIGDERFour Of A Kind12,500
3418/12 21:20BBCF057FFull House2,000
3518/12 21:20PROCESSINGFull House5,000
3618/12 21:20A01R4WT1COFour Of A Kind25,000
3718/12 21:20NALADIFull House2,000
3818/12 21:20OZBK4F77A8Full House2,000
3918/12 21:20ASMO01Full House2,000
4018/12 21:20RUSH449Full House2,000
4118/12 21:20A8ANGRAJAFull House1,000
4218/12 21:20VOODO88Full House1,000
4318/12 21:20RIZKA10Full House2,000
4418/12 21:20MMT93Full House10,000
4518/12 21:20BAYU303030Full House2,000
4618/12 21:20AZURA03Four Of A Kind50,000
4718/12 21:20KEPAL212Full House5,000
4818/12 21:20WARZTFull House5,000
4918/12 21:20ROYAL2388Full House5,000
5018/12 21:20VINOAFDALFull House2,000

Domino Multi Jackpot System

Ikutilah global jackpot yang tersedia di system kami, dengan system jackpot terbaru dan pertama di indonesia, anda dapat membeli jackpot dengan harga 100 rupiah saja dan menangkan hadiahnya hingga puluhan juta rupiah.

Jackpot bukanlah suatu keharusan untuk dibeli, namun kami memberikan suatu fitur tambahan untuk member tercinta dari www.pokerf4ce.com.

Terdapat tiga pilihan harga jackpot yang bisa anda beli yaitu :100,500 dan 1000 rupiah.

Hadiah dari Multi jackpot system www.pokerf4ce.com

  1. Murni Kecil x 50 harga jackpot yang anda beli.
      (contoh:anda membeli 1000 maka:1000 X 50 = 50.000)
  2. Murni Besar x 50 harga jackpot yang anda beli
      (contoh:anda membeli 1000 maka:1000 X 50 = 50.000)
  3. BALAK x 100 harga jackpot yang anda beli
      (contoh:anda membeli 1000 maka:1000 X 100 = 100.000)
  4. ENAM DEWA x 6666 harga jackpot yang anda beli
      (contoh:anda membeli 1000 maka:1000 X 6666 = 6.666.000)

Demikian adalah penjelasan dari Multi Jackpot www.pokerf4ce.com terima kasih dan selamat bermain salam hoki dari kami

Domino Jackpot Winner

TOP ENAM DEWA
No.TanggalNamaPriceWin
118/12 21:16MBRODOL99murni enam3,333,000
218/12 20:27PASTI39murni enam666,600
318/12 20:15HIUWHITEmurni enam666,600
418/12 19:35WAN7109murni enam666,600
518/12 18:20DONGBASmurni enam6,666,000
TOP BALAK
No.TanggalNamaPriceWin
118/12 21:19IP4NK007balak10,000
218/12 21:18ADYY28balak50,000
318/12 21:18RUSKIANTObalak50,000
418/12 21:16BIDIN29balak100,000
518/12 21:14INKHE08balak100,000
LATEST JACKPOT
No.TanggalNamaPriceWin
118/12 21:20BANKER91murni kecil25,000
218/12 21:20HHB28murni kecil25,000
318/12 21:20SEVINmurni besar25,000
418/12 21:19IP4NK007balak10,000
518/12 21:19SADAMSmurni besar50,000
618/12 21:19RAKKA12KAmurni besar50,000
718/12 21:19ANDRIES19murni kecil50,000
818/12 21:19C16A297Emurni besar5,000
918/12 21:18ADYY28balak50,000
1018/12 21:18RUSKIANTObalak50,000
1118/12 21:18SETYAWAmurni besar25,000
1218/12 21:17YUBIN66murni kecil50,000
1318/12 21:17MASJID1980murni kecil5,000
1418/12 21:17STEVI82murni kecil5,000
1518/12 21:17RYL_FLUS_Amurni besar25,000
1618/12 21:17PALALA69murni besar25,000
1718/12 21:17GOPENADmurni kecil50,000
1818/12 21:17NAREKTULAHmurni besar25,000
1918/12 21:16BIDIN29balak100,000
2018/12 21:16NORIES22lucky9950,000
2118/12 21:16MBRODOL99murni enam3,333,000
2218/12 21:16SALAHMAHlucky9925,000
2318/12 21:16COSLmurni besar50,000
2418/12 21:15CAKKOA16murni kecil25,000
2518/12 21:15B1L1NGmurni besar25,000
2618/12 21:15SADAMSmurni kecil50,000
2718/12 21:14T6DR7AH6L1murni kecil50,000
2818/12 21:14OSK3Pmurni besar5,000
2918/12 21:14INKHE08balak100,000
3018/12 21:14SZ27VOWU1Umurni besar25,000
3118/12 21:14BADBOY05balak100,000
3218/12 21:14MULES04balak100,000
3318/12 21:14MUIN83murni besar5,000
3418/12 21:12KAFIR888murni kecil50,000
3518/12 21:12DEVQmurni kecil5,000
3618/12 21:12MANDRIK50murni besar25,000
3718/12 21:12UCRIET_GBmurni besar50,000
3818/12 21:12SITI1177murni kecil25,000
3918/12 21:12PANDI095murni kecil25,000
4018/12 21:11SOJUAKbalak10,000
4118/12 21:11BENDOT73balak10,000
4218/12 21:10PLKOJImurni kecil5,000
4318/12 21:09HOQUENCAmurni kecil5,000
4418/12 21:09KELOPODORmurni kecil25,000
4518/12 21:09BURAHILbalak50,000
4618/12 21:08BABYKUmurni kecil50,000
4718/12 21:08APVMTLmurni besar25,000
4818/12 21:08SIWIN_99murni besar5,000
4918/12 21:07SENJU17murni kecil50,000
5018/12 21:07KREZY72murni besar25,000

Ceme Multi Jackpot System

Jackpot dilihat dari gabungan kartu pemain dengan kartu bandar. Bandar harus membeli jackpot sebanyak jumlah player yang sedang duduk. Sebagai contoh bila terdapat 3 pemain duduk bermain, dan bandar memutuskan untuk membeli jackpot Rp 1.000, maka pada periode tersebut bandar akan membeli jackpot sebanyak 3xRp1.000 = Rp3.000.

Jackpot bukanlah suatu keharusan untuk dibeli, namun kami memberikan suatu fitur tambahan untuk member tercinta dari www.pokerf4ce.com.

Terdapat tiga pilihan harga jackpot yang bisa anda beli yaitu :100,500 dan 1000 rupiah.

Hadiah dari Multi jackpot system www.pokerf4ce.com

  1. Murni Kecil x 50 harga jackpot yang anda beli.
      (contoh:anda membeli 1000 maka:1000 X 50 = 50.000)
  2. Murni Besar x 50 harga jackpot yang anda beli
      (contoh:anda membeli 1000 maka:1000 X 50 = 50.000)
  3. BALAK x 200 harga jackpot yang anda beli
      (contoh:anda membeli 1000 maka:1000 X 200 = 200.000)
  4. ENAM DEWA x 6666 harga jackpot yang anda beli
      (contoh:anda membeli 1000 maka:1000 X 6666 = 6.666.000)

Demikian adalah penjelasan dari Multi Jackpot www.pokerf4ce.com terima kasih dan selamat bermain salam hoki dari kami

Ceme Jackpot Winner

TOP ENAM DEWA
No.TanggalNamaPriceWin
118/12 21:13SALAM1ASPAmurni enam666,600
218/12 21:13AQALAL456murni enam3,333,000
318/12 21:06RUDYMOTORmurni enam6,666,000
418/12 21:02AJISSFFmurni enam6,666,000
518/12 21:02RHINTO26murni enam6,666,000
TOP BALAK
No.TanggalNamaPriceWin
118/12 21:20SUHAEDI111balak100,000
218/12 21:19DEDAI88balak200,000
318/12 21:19E72CE593balak100,000
418/12 21:19SEPENDI872balak200,000
518/12 21:19DWBTITAP99balak20,000
LATEST JACKPOT
No.TanggalNamaPriceWin
118/12 21:21RAFLY81murni besar50,000
218/12 21:20ROY531murni besar50,000
318/12 21:20DAUD117murni kecil50,000
418/12 21:20SUHAEDI111balak100,000
518/12 21:20ADI2145murni besar5,000
618/12 21:20LONGS31murni kecil5,000
718/12 21:20RGBTBGEFWVmurni besar5,000
818/12 21:20SUHUQQ41murni kecil50,000
918/12 21:20COMED12murni kecil50,000
1018/12 21:20ZICKYmurni kecil50,000
1118/12 21:20CIMIN405murni kecil50,000
1218/12 21:20SIHOTANG05murni besar50,000
1318/12 21:20SKYN3T83murni besar50,000
1418/12 21:20KHA25murni kecil50,000
1518/12 21:19DEDAI88balak200,000
1618/12 21:19SABOGARDmurni kecil50,000
1718/12 21:19BEWOK_09murni kecil50,000
1818/12 21:19MADU069murni kecil50,000
1918/12 21:19PERANTAU45murni kecil50,000
2018/12 21:19E72CE593balak100,000
2118/12 21:19SEPENDI872balak200,000
2218/12 21:19UJANGSS12Bmurni kecil5,000
2318/12 21:19DWBTITAP99balak20,000
2418/12 21:19DAENGSLbalak100,000
2518/12 21:19PAPAT12balak100,000
2618/12 21:19INDRIYOmurni kecil50,000
2718/12 21:18NSA21murni kecil50,000
2818/12 21:18DEVA421murni kecil50,000
2918/12 21:18S9DBOLY6BOmurni kecil50,000
3018/12 21:18BAYU354balak200,000
3118/12 21:18S3M0N6K0murni kecil50,000
3218/12 21:18POI20Kmurni kecil50,000
3318/12 21:18PAPAT12murni besar5,000
3418/12 21:18NYEGANGmurni kecil50,000
3518/12 21:18JACKSBROmurni kecil50,000
3618/12 21:17DEDAI88balak200,000
3718/12 21:17MORO_999balak20,000
3818/12 21:17MARYAM79murni kecil25,000
3918/12 21:17CING007murni kecil5,000
4018/12 21:17FAIQ16murni kecil50,000
4118/12 21:17SUS666murni kecil50,000
4218/12 21:17KAKUL15murni kecil25,000
4318/12 21:17LANGLETmurni besar50,000
4418/12 21:17DYN45T1murni besar5,000
4518/12 21:17ANTUAYO23murni kecil5,000
4618/12 21:17YOGM3LUFDWmurni kecil50,000
4718/12 21:17KNTL6969balak200,000
4818/12 21:16AD4829murni kecil50,000
4918/12 21:16KIALAGImurni kecil50,000
5018/12 21:16NG4WImurni kecil25,000